Regional Weather Roundup
Issued by NWS

Home | Current Version | Previous Version | Text Only | Print | Product List | Glossary Off
Versions: 1 2 3 4 5 6 7 8 9 10 11 12 13 14 15 16 17 18 19 20 21 22 23 24 25 26 27 28 29 30 31 32 33 34 35 36 37 38 39 40 41 42 43 44 45 46 47 48 49 50

351
ASUS43 KDTX 200701
RWRMI
MICHIGAN HOURLY REGIONAL WEATHER ROUNDUP
NATIONAL WEATHER SERVICE DETROIT/PONTIAC MI
300 AM EDT WED SEP 20 2017

NOTE: "FAIR" INDICATES FEW OR NO CLOUDS BELOW 12,000 FEET WITH NO
SIGNIFICANT WEATHER AND/OR OBSTRUCTION TO VISIBILITY.

MIZ047>049-052>055-059>063-066>070-074>076-081>083-200800-
SOUTHEAST LOWER MICHIGAN

CITY           SKY/WX    TMP DP  RH WIND       PRES   REMARKS
ADRIAN         FOG       66  66 100 CALM      29.97S VSB 1/2
ALMA           CLOUDY    66  64  95 E5        29.96F FOG
ANN ARBOR      CLOUDY    68  67  96 CALM      29.96S FOG
BAD AXE        CLOUDY    67  65  96 CALM      29.98F FOG
CARO           CLOUDY    65  64  95 CALM      29.97F FOG
DETROIT CITY   CLOUDY    67  67 100 CALM      29.96F FOG
DETROIT        CLOUDY    68  67  96 E3        29.96F FOG
FLINT          CLEAR     65  64  97 E5        29.96F FOG
GROSSE ILE     PTCLDY    66  65  97 CALM      29.95F FOG
HILLSDALE      CLOUDY    66  64  94 SE3       29.96S FOG
HOWELL         CLOUDY    67  66  97 SE3       29.97S FOG

CITY           SKY/WX    TMP DP  RH WIND       PRES   REMARKS
JACKSON        CLOUDY    68  65  90 SE5       29.96S FOG
LAMBERTVILLE   CLOUDY    67  65  93 CALM      29.95F FOG
LANSING        CLOUDY    67  64  90 SE5       29.96F FOG
LAPEER         CLOUDY    66  66  98 CALM      29.98F FOG
MASON          CLOUDY    68  66  92 SE3       29.96S FOG
MONROE         CLOUDY    68  66  93 CALM      29.95S FOG
MT. CLEMENS    PTCLDY    67  67 100 CALM      29.95F
PONTIAC        CLOUDY    67  67 100 E3        29.96F FOG
PORT HOPE        N/A     67  66  97 E3        29.97S
PORT HURON     FOG       66  64  94 CALM      29.98F VSB 1/2
TRI CITIES     CLOUDY    67  67 100 E3        29.98S FOG
MIDLAND        CLOUDY    66  65  97 E3        29.96F FOG
TROY           CLOUDY    68  67  97 CALM      29.99F FOG
SAGINAW HB     CLOUDY    64  64 100 CALM      29.96F FOG
$$
MIZ043>046-050>051-056>058-064>065-071>073-077>080-200800-
SOUTHWEST LOWER MICHIGAN

CITY           SKY/WX    TMP DP  RH WIND       PRES   REMARKS
BATTLE CREEK   CLOUDY    67  67 100 SE6       29.95F FOG
BENTON HARBOR  FOG       62  60  93 CALM      29.92F VSB 1/2
BIG RAPIDS     CLOUDY    64  61  92 CALM      29.95F FOG
COLDWATER      CLOUDY    67  67 100 CALM      29.95F FOG
FREMONT        CLOUDY    64  64 100 E6        29.93F FOG
HOLLAND        CLOUDY    64  62  93 E6        29.93F
GRAND RAPIDS   CLOUDY    67  66  97 E6        29.94F FOG
IONIA          CLOUDY    65  65  99 E5        29.94F FOG
KALAMAZOO      CLOUDY    68  64  87 SE3       29.94F FOG
LUDINGTON      CLOUDY    62  60  96 SE6       29.93S FOG
MARSHALL       CLOUDY    66  65  98 CALM      29.94F FOG
MOUNT PLEASANT FOG       65  64  96 E5        29.96F VSB 1/2
MUSKEGON       MOCLDY    63  61  93 SE5       29.93F FOG
SOUTH HAVEN    CLEAR     62  60  96 CALM      29.92F FOG
$$
MIZ016>042-200800-
NORTHERN LOWER MICHIGAN

CITY           SKY/WX    TMP DP  RH WIND       PRES   REMARKS
ALPENA         CLOUDY    66  66 100 CALM      29.98F FOG
BEAVER ISLAND  CLEAR     61  61  98 SE7       29.97S
BELLAIRE       MOCLDY    59  58  95 CALM      29.96S
CADILLAC       CLOUDY    65  62  90 SE6       29.96F
CHARLEVOIX     CLEAR     60  60 100 SE3       29.99S
FRANKFORT      CLEAR     63  61  96 SE5       29.94R
GAYLORD        CLOUDY    62  60  93 SE5       29.98F
GRAYLING       CLOUDY    61  59  94 E3        29.98F FOG
HARBOR SPRINGS CLOUDY    61  60  95 NE7       29.97F
HOUGHTON LAKE  CLOUDY    63  61  93 CALM      29.99S
MANISTEE       CLOUDY    57  57 100 E3        29.93S
OSCODA         CLOUDY    67  66  99 CALM      29.98S FOG
PELLSTON       CLOUDY    62  61  96 CALM      29.99R FOG
ROGERS CITY    CLOUDY    64  63  96 E3        30.00F
TRAVERSE CITY  CLOUDY    64  60  87 CALM      29.94F
$$
MIZ007>008-015-200800-
EASTERN UPPER MICHIGAN

CITY           SKY/WX    TMP DP  RH WIND       PRES   REMARKS
KINROSS        CLOUDY    61  60  97 E5        30.00S
MACKINAC ISLAN CLOUDY    63  63 100 SE3       29.99S FOG
NEWBERRY       CLOUDY    59  58  97 SE7       29.98R
S. S. MARIE    CLOUDY    60  57  89 E3        29.99S
MUNISING         N/A     58  58 100 SW7       29.94R
$$
MIZ004>006-011>014-085-200800-
CENTRAL UPPER MICHIGAN

CITY           SKY/WX    TMP DP  RH WIND       PRES   REMARKS
MANISTIQUE     CLEAR     61  55  81 SE6       29.95S
MENOMINEE      CLEAR     58  58 100 CALM      29.93R
SAWYER-GWINN   CLOUDY    56  55  97 S9        29.94F
$$
MIZ001>003-009>011-084-200800-
WESTERN UPPER MICHIGAN

CITY           SKY/WX    TMP DP  RH WIND       PRES   REMARKS
IRON MOUNTAIN  FOG       58  56  93 SE5       29.92F VSB 1/4
HOUGHTON       CLEAR     57  52  83 E7        29.89S
COPPER HARBOR    N/A     60  55  83 S6G17     29.89S
IRONWOOD       CLOUDY    61  54  77 S16G24    29.83R
$$

ABBREVIATIONS USED IN REMARKS
   TC - TEMPERATURE IN CELSIUS
  WCI - WIND CHILL INDEX
   HX - HEAT INDEX
  VSB - VISIBILITY





USA.gov is the U.S. government's official web portal to all federal, state and local government web resources and services.